Torna al catalogo

CBERS 2

AttivoScienzaSSO
NORAD 28057·PAYLOAD·🇧🇷 Brazil🇨🇳 China

Lanciato Oct 21, 2003 da Taiyuan Satellite Launch Center

Loading…

Prossimi Passaggi (prossime 24 ore)

TLE

AggiornatoSource: Space-Track

Epoca: Sep 14, 2026, 04:36 UTC

1 28057U 03049A   26257.19177917  .00000134  00000-0  60978-4 0  9994
2 28057  98.7669 230.6050 0000434 119.9585 240.1643 14.36774707199964

Traccia CBERS 2 in tempo reale con AllMySat

Download on the App Store